Regional Weather Roundup
Issued by NWS Charleston, SC

Current Version | Previous Version | Graphics & Text | Print | Product List | Glossary On
Versions: 1 2 3 4 5 6 7 8 9 10 11 12 13 14 15 16 17 18 19 20 21 22 23 24 25 26 27 28 29 30 31 32 33 34 35 36 37 38 39 40 41 42 43 44 45 46 47 48 49 50
000
ASUS42 KCHS 301811
RWRCHS

REGIONAL WEATHER ROUNDUP
NATIONAL WEATHER SERVICE CHARLESTON SC
100 PM EST FRI JAN 30 2015

NOTE: "FAIR" INDICATES FEW OR NO CLOUDS BELOW 12,000 FEET WITH NO
SIGNIFICANT WEATHER AND/OR OBSTRUCTIONS TO VISIBILITY.

NOT ALL STATIONS ARE QUALITY CONTROLLED BY THE NATIONAL
WEATHER SERVICE. USE DATA WITH CAUTION...ESPECIALLY
DEWPOINT OBSERVATIONS.

SCZ027-030-031-034>040-042>050-301900-
...SOUTHEAST SOUTH CAROLINA...

CITY           SKY/WX    TMP DP  RH WIND       PRES   REMARKS
N CHARLESTON   MOSUNNY   57  30  35 NW16G25   30.13S
6HR MIN TEMP:  53; 6HR MAX TEMP:  58;

WATERFRONT PRK   N/A     55 N/A N/A NW15G25     N/A
MOUNT PLEASANT FAIR      55  32  41 NW17G23   30.12F
PINOPOLIS        N/A     52  36  54 NW15      30.05F
MONCKS CORNER  FAIR      55  32  41 N13G22    30.14S
SUMMERVILLE    FAIR      55  32  41 NW17G23   30.15S
BEAUFORT MCAS  MOSUNNY   59  36  42 NW14G26   30.15F
6HR MIN TEMP:  53; 6HR MAX TEMP:  59;

BEAUFORT ARPT  FAIR      59  39  47 NW13G24   30.14F
HILTON HEAD IS SUNNY     57  37  47 N10G20    30.15F
WALTERBORO     CLEAR     59  21  23 NW14G20   30.16S
ALLENDALE      FAIR      55  34  44 NW10      30.17F

...SOUTHERN MIDLANDS AND PEE DEE...

CITY           SKY/WX    TMP DP  RH WIND       PRES   REMARKS
GEORGETOWN     NOT AVBL
KINGSTREE      NOT AVBL
ORANGEBURG     SUNNY     54  19  25 N15G26    30.16F
6HR MIN TEMP:  49; 6HR MAX TEMP:  54;

BARNWELL       FAIR      55  34  44 NW13G20   30.19S
AIKEN          FAIR      52  30  43 N15       30.22F
MANNING        FAIR      55  27  33 N15G21    30.15S
COLUMBIA       MOSUNNY   52  22  30 NW15G25   30.18F
6HR MIN TEMP:  46; 6HR MAX TEMP:  53;

SUMTER         SUNNY     54  23  30 NW16G23   30.14F
6HR MIN TEMP:  46; 6HR MAX TEMP:  53; 6HR PCP: TRACE;

FLORENCE       SUNNY     53  24  32 NW16G30   30.13F
6HR MIN TEMP:  48; 6HR MAX TEMP:  53;

MYRTLE BEACH   NOT AVBL
N MYRTLE BEACH SUNNY     53  29  39 N8G24     30.08F
6HR MIN TEMP:  49; 6HR MAX TEMP:  53;


$$

GAZ063-065-086>088-099>101-113>116-118-119-134>141-150-301900-
...SOUTHEAST GEORGIA...

CITY           SKY/WX    TMP DP  RH WIND       PRES   REMARKS
SAVANNAH ARPT  MOSUNNY   58  34  40 NW20      30.17F
6HR MIN TEMP:  52; 6HR MAX TEMP:  58;

HUNTER AAF     SUNNY     59  36  42 NW17      30.14F
6HR MIN TEMP:  52; 6HR MAX TEMP:  59;

FORT STEWART   SUNNY     57  33  40 N14G22    30.17F
6HR MIN TEMP:  52; 6HR MAX TEMP:  58;

STATESBORO     SUNNY     56  33  42 N14G20    30.19F
SYLVANIA       CLEAR     56  35  45 NW15      30.19F
CLAXTON        FAIR      55  36  47 NW8       30.20F

...CSRA...CENTRAL AND FAR SOUTHEAST GEORGIA...

CITY           SKY/WX    TMP DP  RH WIND       PRES   REMARKS
THOMSON        SUNNY     54  29  39 NW12G20   30.26F
AUGUSTA-BUSH   SUNNY     55  25  31 N17       30.20F
6HR MIN TEMP:  45; 6HR MAX TEMP:  55;

AUGUSTA-DANIEL SUNNY     54  24  31 NW14G22   30.21F
SWAINSBORO     FAIR      55  10  16 NW12G18   30.22F
VIDALIA        SUNNY     55  32  41 NW10G21   30.22F
EASTMAN        FAIR      56  29  35 N10G16    30.27F
HAZLEHURST     FAIR      56  30  36 N13G18    30.21F
ALMA           SUNNY     56  28  34 NW15G21   30.22F
6HR MIN TEMP:  52; 6HR MAX TEMP:  57;

WAYCROSS       SUNNY     61  36  38 NW13      30.21F
JESUP          FAIR      59  36  41 N5G18     30.19F
BAXLEY         FAIR      57  32  38 N9G17     30.21F
BRUNSWICK      SUNNY     61  34  36 NW10G20   30.18S
SAINT SIMONS   SUNNY     60  35  39 NW15G22   30.16F
6HR MIN TEMP:  52; 6HR MAX TEMP:  60;


$$

SCZ027-028-034-036>038-045-046-048>050-GAZ119-141-301900-
...LAKE AND SUPPLEMENTAL COASTAL OBSERVATIONS...

STATION/POSITION TIME  TEMP    WIND        PRES    WAVE   SWELL
                       AIR SEA DIR/SP/G            HT/PER HT/PER/DIR
                 (UTC) (F)     (DEG/KT/KT) (MB)    (FT/S) (FT/S/D)
UPR LAKE MARION  NOT AVBL
WINYAH BAY       NOT AVBL
LAKE MURRAY      1700   49     310/  6/ 10 1022.4R
ACE BASIN NERRS  NOT AVBL
FORT PULASKI     1700   54 52  310/ 20/ 25 1021.6R
SAPELO ISLAND    NOT AVBL

$$

ANZ835-935-AMZ111-154-330-350-352-354-370-450-454-472-301900-
...C-MAN AND BUOY OBSERVATIONS...

STATION/POSITION TIME  TEMP    WIND        PRES    WAVE   SWELL
                       AIR SEA DIR/SP/G            HT/PER HT/PER/DIR
                 (UTC) (F)     (DEG/KT/KT) (MB)    (FT/S) (FT/S/D)
BUOY 41004       1750   55 68  320/ 19/ 25 1018.5S   5/ 5   2/12
BUOY 41008       1750   53 54  330/ 16/ 19 1021.0F   3/ 4   2/110/10
FOLLY BEACH CMAN 1800   57     320/ 10/ 16 1020.3S
CAPERS NEARSHORE 1700   54     330/ 21/ 25   N/A
FRIPP NEARSHORE  1700   54     320/ 17/ 19 1020.1R


STATION/POSITION TIME  TEMP    WIND        PRES    WAVE   SWELL
                       AIR SEA DIR/SP/G            HT/PER HT/PER/DIR
                 (UTC) (F)     (DEG/KT/KT) (MB)    (FT/S) (FT/S/D)
5E ST. MARYS GA  1721      56                N/A     2/11
FRYING PAN BUOY  1750   50 63  320/ 19/ 23 1017.8F   5/ 7
BUOY 41025       1750   45 68  340/ 25/ 31 1014.3S   5/ 5   2/ 30/ 9
CAPE LOOKOUT NC  1800   47     350/ 17/ 22 1015.8F
BUOY 41002       1750   68 72  280/ 33/ 39 1011.4F  10/ 7   2/340/11
BUOY 41010       1720   68 74  260/ 19/ 25 1019.7F
ST AUGUSTINE FL  1800   64     310/ 10/ 14 1021.2F


$$


USA.gov is the U.S. government's official web portal to all federal, state and local government web resources and services.